Location: Bailey Volunteer Fire Department
(33.4359°N, 96.1680°W)
Time: 17:57:43
(UTC+00:00)

IRIDIUM 103 - Pass Details

Date: 13 December 2025
Orbit: 776 x 779 km, 86.4° (Epoch: 14 January)

Event Time Altitude Azimuth Distance (km) Brightness Sun altitude
Rises 11:59:40 0° 179° (S) 3,245 7.8 -16.3°
Reaches altitude 10° 12:02:00 10° 179° (S) 2,322 7.0 -15.9°
Maximum altitude 12:07:12 87° 93° (E) 784 4.3 -14.9°
Drops below altitude 10° 12:12:27 10° 2° (N) 2,336 6.6 -13.8°
Sets 12:14:48 0° 3° (N) 3,267 7.4 -13.3°
